NANOZOND 1 (RS49S)

Last updated on Thu Mar 05 2026 00:03:22 GMT+0000 (Coordinated Universal Time)

1 57190U 23091AA 26063.65758287 .00252285 00000+0 18505-2 0 9996 2 57190 97.5092 143.5077 0000459 32.8104 327.3188 15.72393820149487
UTC large
Height (km)
Speed (km/s)
/
Latitude / Longitude
Inclination (degrees)
Orbital Period (minutes)
Azimuth
Elevation
Range (km)
Doppler Factor

Next 0 passes for location: London (51.5072 / 0.1276)

Sorry there are no passes over London.